Location: Kampong Paya Jaras Dalam
(3.1833°N, 101.5500°E)
Time: 04:40:31
(UTC+00:00)

H-2A R/B - Pass Details

Date: 15 May 2026
Orbit: 549 x 611 km, 98.5° (Epoch: 7 June)

Event Time Altitude Azimuth Distance (km) Brightness Sun altitude
Rises 20:54:39 0° 9° (N) 2,743 5.8 -30.5°
Reaches altitude 10° 20:56:45 10° 7° (N) 1,858 4.8 -30.1°
Enters shadow 20:57:34 16° 5° (N) 1,526 4.3 -29.9°
